Time,TemperatureF,DewpointF,PressureIn,WindDirection,WindDirectionDegrees,WindSpeedMPH,WindSpeedGustMPH,Humidity,HourlyPrecipIn,Conditions,Clouds,dailyrainin,SolarRadiationWatts/m^2,SoftwareType,DateUTC
2013-06-13 00:00:00,77.9,69.7,29.76,WSW,242,3.0,5.0,76,0.00,,SCT055,0.00,0.00,VWS V14.01,2013-06-13 05:00:00,
2013-06-13 00:01:00,77.9,69.7,29.76,WSW,242,3.0,5.0,76,0.00,,CLR,0.00,0.00,VWS V14.01,2013-06-13 05:01:00,
2013-06-13 00:05:00,77.8,69.6,29.76,NW,307,1.0,5.0,76,0.00,,SCT055,0.00,0.00,VWS V14.01,2013-06-13 05:05:00,
2013-06-13 00:06:00,77.8,69.6,29.76,NW,307,0.0,3.0,76,0.00,,CLR,0.00,0.00,VWS V14.01,2013-06-13 05:06:00,
2013-06-13 00:10:00,77.8,69.6,29.76,SW,223,1.0,3.0,76,0.00,,SCT055,0.00,0.00,VWS V14.01,2013-06-13 05:10:00,
2013-06-13 00:11:00,77.8,69.6,29.76,WSW,243,2.0,3.0,76,0.00,,CLR,0.00,0.00,VWS V14.01,2013-06-13 05:11:00,
2013-06-13 00:15:00,77.9,69.7,29.76,West,259,3.0,4.0,76,0.00,,SCT055,0.00,0.00,VWS V14.01,2013-06-13 05:15:00,
2013-06-13 00:16:00,77.9,69.7,29.76,WSW,242,0.0,4.0,76,0.00,,CLR,0.00,0.00,VWS V14.01,2013-06-13 05:16:00,
2013-06-13 00:20:00,77.8,69.6,29.76,WSW,245,0.0,5.0,76,0.00,,SCT055,0.00,0.00,VWS V14.01,2013-06-13 05:20:00,
2013-06-13 00:21:00,77.7,69.9,29.76,WSW,246,1.0,3.0,77,0.00,,CLR,0.00,0.00,VWS V14.01,2013-06-13 05:21:00,
2013-06-13 00:25:00,77.7,69.9,29.76,SW,228,0.0,4.0,77,0.00,,SCT055,0.00,0.00,VWS V14.01,2013-06-13 05:25:00,
2013-06-13 00:26:00,77.7,69.9,29.76,SW,228,0.0,1.0,77,0.00,,CLR,0.00,0.00,VWS V14.01,2013-06-13 05:26:00,
2013-06-13 00:30:00,77.6,69.8,29.76,SW,227,3.0,5.0,77,0.00,,SCT055,0.00,0.00,VWS V14.01,2013-06-13 05:30:00,
2013-06-13 00:31:00,77.6,69.8,29.76,SW,227,0.0,3.0,77,0.00,,CLR,0.00,0.00,VWS V14.01,2013-06-13 05:31:00,
2013-06-13 00:35:00,77.7,69.9,29.76,West,259,0.0,5.0,77,0.00,,SCT055,0.00,0.00,VWS V14.01,2013-06-13 05:35:00,
2013-06-13 00:36:00,77.7,69.9,29.76,WSW,250,2.0,3.0,77,0.00,,CLR,0.00,0.00,VWS V14.01,2013-06-13 05:36:00,
2013-06-13 00:40:00,77.6,69.8,29.76,West,281,1.0,6.0,77,0.00,,SCT055,0.00,0.00,VWS V14.01,2013-06-13 05:40:00,
2013-06-13 00:41:00,77.6,69.8,29.76,SW,229,3.0,3.0,77,0.00,,CLR,0.00,0.00,VWS V14.01,2013-06-13 05:41:00,
2013-06-13 00:45:00,77.6,69.8,29.76,WSW,255,1.0,3.0,77,0.00,,SCT055,0.00,0.00,VWS V14.01,2013-06-13 05:45:00,
2013-06-13 00:46:00,77.5,69.7,29.76,West,271,4.0,4.0,77,0.00,,CLR,0.00,0.00,VWS V14.01,2013-06-13 05:46:00,
2013-06-13 00:50:00,77.5,69.7,29.76,SW,221,5.0,6.0,77,0.00,,SCT055,0.00,0.00,VWS V14.01,2013-06-13 05:50:00,
2013-06-13 00:51:00,77.6,69.8,29.76,SW,217,1.0,5.0,77,0.00,,CLR,0.00,0.00,VWS V14.01,2013-06-13 05:51:00,
2013-06-13 00:55:00,77.7,69.9,29.76,SW,226,4.0,7.0,77,0.00,,SCT055,0.00,0.00,VWS V14.01,2013-06-13 05:55:00,
2013-06-13 00:56:00,77.7,69.9,29.76,WSW,237,1.0,4.0,77,0.00,,CLR,0.00,0.00,VWS V14.01,2013-06-13 05:56:00,
2013-06-13 01:00:00,77.7,69.9,29.76,West,266,2.0,5.0,77,0.00,,SCT055,0.00,0.00,VWS V14.01,2013-06-13 06:00:00,
2013-06-13 01:01:00,77.7,69.9,29.76,West,279,3.0,3.0,77,0.00,,FEW049,0.00,0.00,VWS V14.01,2013-06-13 06:01:00,
2013-06-13 01:05:00,77.8,70.0,29.76,SW,217,6.0,7.0,77,0.00,,SCT055,0.00,0.00,VWS V14.01,2013-06-13 06:05:00,
2013-06-13 01:06:00,77.8,70.0,29.76,WSW,251,4.0,7.0,77,0.00,,FEW049,0.00,0.00,VWS V14.01,2013-06-13 06:06:00,
2013-06-13 01:10:00,77.9,70.1,29.76,WSW,239,4.0,7.0,77,0.00,,SCT055,0.00,0.00,VWS V14.01,2013-06-13 06:10:00,
2013-06-13 01:11:00,77.9,70.1,29.76,WSW,242,5.0,8.0,77,0.00,,FEW049,0.00,0.00,VWS V14.01,2013-06-13 06:11:00,
2013-06-13 01:15:00,77.9,70.1,29.76,WSW,244,3.0,8.0,77,0.00,,SCT055,0.00,0.00,VWS V14.01,2013-06-13 06:15:00,
2013-06-13 01:16:00,78.0,70.2,29.76,West,263,0.0,6.0,77,0.00,,FEW049,0.00,0.00,VWS V14.01,2013-06-13 06:16:00,
2013-06-13 01:20:00,77.9,70.1,29.76,WSW,240,6.0,7.0,77,0.00,,SCT055,0.00,0.00,VWS V14.01,2013-06-13 06:20:00,
2013-06-13 01:21:00,77.9,70.1,29.76,SW,235,4.0,6.0,77,0.00,,FEW049,0.00,0.00,VWS V14.01,2013-06-13 06:21:00,
2013-06-13 01:25:00,77.8,70.0,29.76,West,266,4.0,6.0,77,0.00,,SCT055,0.00,0.00,VWS V14.01,2013-06-13 06:25:00,
2013-06-13 01:26:00,77.8,70.0,29.76,West,274,3.0,5.0,77,0.00,,FEW049,0.00,0.00,VWS V14.01,2013-06-13 06:26:00,
2013-06-13 01:30:00,77.8,70.0,29.77,NNW,327,3.0,7.0,77,0.00,,SCT055,0.00,0.00,VWS V14.01,2013-06-13 06:30:00,
2013-06-13 01:31:00,77.8,70.0,29.77,South,182,4.0,6.0,77,0.00,,FEW049,0.00,0.00,VWS V14.01,2013-06-13 06:31:00,
2013-06-13 01:35:00,77.9,70.1,29.77,SW,236,4.0,6.0,77,0.00,,SCT055,0.00,0.00,VWS V14.01,2013-06-13 06:35:00,
2013-06-13 01:36:00,77.9,70.1,29.77,WNW,300,1.0,4.0,77,0.00,,FEW049,0.00,0.00,VWS V14.01,2013-06-13 06:36:00,
2013-06-13 01:40:00,77.9,70.1,29.77,SW,235,2.0,6.0,77,0.00,,SCT055,0.00,0.00,VWS V14.01,2013-06-13 06:40:00,
2013-06-13 01:42:00,77.9,70.1,29.77,WNW,302,1.0,5.0,77,0.00,,FEW049,0.00,0.00,VWS V14.01,2013-06-13 06:42:00,
2013-06-13 01:45:00,77.9,70.1,29.77,SSW,211,2.0,6.0,77,0.00,,SCT055,0.00,0.00,VWS V14.01,2013-06-13 06:45:00,
2013-06-13 01:47:00,77.8,70.0,29.77,SW,236,4.0,4.0,77,0.00,,FEW049,0.00,0.00,VWS V14.01,2013-06-13 06:47:00,
2013-06-13 01:50:00,77.9,70.5,29.77,SW,223,1.0,8.0,78,0.00,,SCT055,0.00,0.00,VWS V14.01,2013-06-13 06:50:00,
2013-06-13 01:52:00,77.9,70.5,29.77,West,260,3.0,5.0,78,0.00,,FEW049,0.00,0.00,VWS V14.01,2013-06-13 06:52:00,
2013-06-13 01:55:00,77.8,70.4,29.77,WSW,249,2.0,7.0,78,0.00,,SCT055,0.00,0.00,VWS V14.01,2013-06-13 06:55:00,
2013-06-13 01:57:00,77.8,70.4,29.77,West,262,3.0,3.0,78,0.00,,FEW049,0.00,0.00,VWS V14.01,2013-06-13 06:57:00,
2013-06-13 02:00:00,77.8,70.4,29.77,SW,231,0.0,5.0,78,0.00,,SCT055,0.00,0.00,VWS V14.01,2013-06-13 07:00:00,
2013-06-13 02:02:00,77.7,70.3,29.77,SW,231,0.0,1.0,78,0.00,,CLR,0.00,0.00,VWS V14.01,2013-06-13 07:02:00,
2013-06-13 02:05:00,77.5,70.5,29.77,WSW,247,2.0,7.0,79,0.00,,SCT055,0.00,0.00,VWS V14.01,2013-06-13 07:05:00,
2013-06-13 02:07:00,77.4,70.4,29.77,WSW,248,1.0,2.0,79,0.00,,CLR,0.00,0.00,VWS V14.01,2013-06-13 07:07:00,
2013-06-13 02:10:00,77.3,70.3,29.77,WSW,244,1.0,6.0,79,0.00,,SCT055,0.00,0.00,VWS V14.01,2013-06-13 07:10:00,
2013-06-13 02:12:00,77.3,70.3,29.77,WSW,242,1.0,2.0,79,0.00,,CLR,0.00,0.00,VWS V14.01,2013-06-13 07:12:00,
2013-06-13 02:15:00,77.3,70.3,29.78,NW,313,1.0,3.0,79,0.00,,SCT055,0.00,0.00,VWS V14.01,2013-06-13 07:15:00,
2013-06-13 02:17:00,77.3,70.3,29.78,NW,304,0.0,2.0,79,0.00,,CLR,0.00,0.00,VWS V14.01,2013-06-13 07:17:00,
2013-06-13 02:20:00,77.1,70.5,29.78,WNW,289,3.0,6.0,80,0.00,,SCT055,0.00,0.00,VWS V14.01,2013-06-13 07:20:00,
2013-06-13 02:22:00,77.1,70.5,29.78,SSW,213,2.0,5.0,80,0.00,,CLR,0.00,0.00,VWS V14.01,2013-06-13 07:22:00,
2013-06-13 02:25:00,77.2,70.6,29.78,NNW,328,3.0,5.0,80,0.00,,SCT055,0.00,0.00,VWS V14.01,2013-06-13 07:25:00,
2013-06-13 02:27:00,77.2,70.6,29.78,WNW,300,3.0,5.0,80,0.00,,CLR,0.00,0.00,VWS V14.01,2013-06-13 07:27:00,
2013-06-13 02:30:00,77.2,70.6,29.77,West,265,2.0,5.0,80,0.00,,SCT055,0.00,0.00,VWS V14.01,2013-06-13 07:30:00,
2013-06-13 02:32:00,77.2,70.6,29.77,NW,313,1.0,6.0,80,0.00,,CLR,0.00,0.00,VWS V14.01,2013-06-13 07:32:00,
2013-06-13 02:35:00,77.2,70.6,29.77,WSW,250,1.0,6.0,80,0.00,,SCT055,0.00,0.00,VWS V14.01,2013-06-13 07:35:00,
2013-06-13 02:37:00,77.1,70.5,29.77,WSW,240,4.0,6.0,80,0.00,,CLR,0.00,0.00,VWS V14.01,2013-06-13 07:37:00,
2013-06-13 02:40:00,77.1,70.5,29.77,WNW,292,3.0,7.0,80,0.00,,SCT055,0.00,0.00,VWS V14.01,2013-06-13 07:40:00,
2013-06-13 02:42:00,77.1,70.5,29.77,SW,219,2.0,6.0,80,0.00,,CLR,0.00,0.00,VWS V14.01,2013-06-13 07:42:00,
2013-06-13 02:45:00,77.2,70.6,29.77,SW,228,4.0,8.0,80,0.00,,SCT055,0.00,0.00,VWS V14.01,2013-06-13 07:45:00,
2013-06-13 02:47:00,77.2,70.6,29.77,WSW,255,1.0,6.0,80,0.00,,CLR,0.00,0.00,VWS V14.01,2013-06-13 07:47:00,
2013-06-13 02:50:00,77.1,70.5,29.77,SW,232,4.0,6.0,80,0.00,,SCT055,0.00,0.00,VWS V14.01,2013-06-13 07:50:00,
2013-06-13 02:52:00,77.1,70.8,29.77,West,267,1.0,7.0,81,0.00,,CLR,0.00,0.00,VWS V14.01,2013-06-13 07:52:00,
2013-06-13 02:55:00,77.0,70.7,29.77,NW,319,4.0,8.0,81,0.00,,SCT055,0.00,0.00,VWS V14.01,2013-06-13 07:55:00,
2013-06-13 02:57:00,77.1,70.8,29.77,WSW,247,3.0,4.0,81,0.00,,CLR,0.00,0.00,VWS V14.01,2013-06-13 07:57:00,
2013-06-13 03:00:00,77.0,70.7,29.77,WSW,257,3.0,7.0,81,0.00,,SCT055,0.00,0.00,VWS V14.01,2013-06-13 08:00:00,
2013-06-13 03:02:00,77.0,70.7,29.77,WSW,239,1.0,3.0,81,0.00,,SCT055,0.00,0.00,VWS V14.01,2013-06-13 08:02:00,
2013-06-13 03:05:00,77.0,70.7,29.77,West,259,4.0,7.0,81,0.00,,SCT055,0.00,0.00,VWS V14.01,2013-06-13 08:05:00,
2013-06-13 03:07:00,77.0,70.7,29.77,West,268,4.0,6.0,81,0.00,,SCT055,0.00,0.00,VWS V14.01,2013-06-13 08:07:00,
2013-06-13 03:10:00,77.1,70.8,29.77,WSW,254,0.0,6.0,81,0.00,,SCT055,0.00,0.00,VWS V14.01,2013-06-13 08:10:00,
2013-06-13 03:12:00,77.0,70.7,29.77,WSW,240,3.0,5.0,81,0.00,,SCT055,0.00,0.00,VWS V14.01,2013-06-13 08:12:00,
2013-06-13 03:15:00,77.0,70.7,29.78,WNW,302,2.0,5.0,81,0.00,,SCT055,0.00,0.00,VWS V14.01,2013-06-13 08:15:00,
2013-06-13 03:17:00,77.1,70.8,29.78,NW,304,0.0,5.0,81,0.00,,SCT055,0.00,0.00,VWS V14.01,2013-06-13 08:17:00,
2013-06-13 03:20:00,77.0,70.7,29.78,WSW,244,3.0,5.0,81,0.00,,SCT055,0.00,0.00,VWS V14.01,2013-06-13 08:20:00,
2013-06-13 03:25:00,77.2,70.6,29.78,NNW,328,3.0,5.0,80,0.00,,BKN090,0.00,0.00,VWS V14.01,2013-06-13 08:25:00,
2013-06-13 03:29:00,76.8,70.5,29.78,WSW,248,0.0,0.0,81,0.00,,SCT055,0.00,0.00,VWS V14.01,2013-06-13 08:29:00,
2013-06-13 03:30:00,76.7,70.8,29.79,WSW,248,0.0,3.0,82,0.00,,SCT110,0.00,0.00,VWS V14.01,2013-06-13 08:30:00,
2013-06-13 03:34:00,76.4,70.5,29.79,WNW,300,2.0,5.0,82,0.00,,SCT055,0.00,0.00,VWS V14.01,2013-06-13 08:34:00,
2013-06-13 03:35:00,76.3,70.4,29.79,West,271,1.0,5.0,82,0.00,,SCT110,0.00,0.00,VWS V14.01,2013-06-13 08:35:00,
2013-06-13 03:39:00,76.2,70.3,29.79,WNW,301,0.0,7.0,82,0.00,,SCT055,0.00,0.00,VWS V14.01,2013-06-13 08:39:00,
2013-06-13 03:40:00,76.2,70.3,29.79,WNW,301,1.0,7.0,82,0.00,,SCT110,0.00,0.00,VWS V14.01,2013-06-13 08:40:00,
2013-06-13 03:44:00,76.1,70.6,29.79,West,267,0.0,2.0,83,0.00,,SCT055,0.00,0.00,VWS V14.01,2013-06-13 08:44:00,
2013-06-13 03:45:00,76.0,70.5,29.79,West,267,1.0,2.0,83,0.00,,SCT110,0.00,0.00,VWS V14.01,2013-06-13 08:45:00,
2013-06-13 03:49:00,75.9,70.4,29.79,SW,236,3.0,6.0,83,0.00,,SCT055,0.00,0.00,VWS V14.01,2013-06-13 08:49:00,
2013-06-13 03:50:00,75.9,70.4,29.79,SW,236,0.0,6.0,83,0.00,,SCT110,0.00,0.00,VWS V14.01,2013-06-13 08:50:00,
2013-06-13 03:54:00,76.0,70.5,29.79,WSW,254,2.0,4.0,83,0.00,,SCT055,0.00,0.00,VWS V14.01,2013-06-13 08:54:00,
2013-06-13 03:55:00,76.0,70.5,29.79,West,273,2.0,4.0,83,0.00,,SCT110,0.00,0.00,VWS V14.01,2013-06-13 08:55:00,
2013-06-13 03:59:00,76.0,70.5,29.79,WSW,241,3.0,6.0,83,0.00,,SCT055,0.00,0.00,VWS V14.01,2013-06-13 08:59:00,
2013-06-13 04:00:00,76.0,70.5,29.79,West,275,3.0,6.0,83,0.00,,SCT110,0.00,0.00,VWS V14.01,2013-06-13 09:00:00,
2013-06-13 04:04:00,76.0,70.5,29.79,WNW,290,1.0,5.0,83,0.00,,OVC049,0.00,0.00,VWS V14.01,2013-06-13 09:04:00,
2013-06-13 04:05:00,76.0,70.5,29.79,WNW,292,2.0,5.0,83,0.00,,SCT110,0.00,0.00,VWS V14.01,2013-06-13 09:05:00,
2013-06-13 04:09:00,76.1,70.6,29.79,NW,305,2.0,4.0,83,0.00,,OVC049,0.00,0.00,VWS V14.01,2013-06-13 09:09:00,
2013-06-13 04:10:00,76.1,70.6,29.79,WNW,284,3.0,5.0,83,0.00,,SCT110,0.00,0.00,VWS V14.01,2013-06-13 09:10:00,
2013-06-13 04:14:00,76.1,70.6,29.79,ENE,73,1.0,6.0,83,0.00,,OVC049,0.00,0.00,VWS V14.01,2013-06-13 09:14:00,
2013-06-13 04:15:00,76.1,70.6,29.79,SW,225,1.0,6.0,83,0.00,,SCT110,0.00,0.00,VWS V14.01,2013-06-13 09:15:00,
2013-06-13 04:19:00,76.1,70.6,29.79,West,275,0.0,4.0,83,0.00,,OVC049,0.00,0.00,VWS V14.01,2013-06-13 09:19:00,
2013-06-13 04:20:00,76.1,70.6,29.79,West,275,1.0,4.0,83,0.00,,SCT110,0.00,0.00,VWS V14.01,2013-06-13 09:20:00,
2013-06-13 04:24:00,76.1,70.6,29.79,NW,306,0.0,3.0,83,0.00,,OVC049,0.00,0.00,VWS V14.01,2013-06-13 09:24:00,
2013-06-13 04:25:00,76.1,70.9,29.79,NW,306,0.0,3.0,84,0.00,,SCT110,0.00,0.00,VWS V14.01,2013-06-13 09:25:00,
2013-06-13 04:29:00,75.9,70.7,29.79,WSW,257,0.0,3.0,84,0.00,,OVC049,0.00,0.00,VWS V14.01,2013-06-13 09:29:00,
2013-06-13 04:30:00,75.9,70.7,29.79,WSW,258,0.0,3.0,84,0.00,,SCT110,0.00,0.00,VWS V14.01,2013-06-13 09:30:00,
2013-06-13 04:34:00,75.8,70.6,29.79,West,271,0.0,3.0,84,0.00,,OVC049,0.00,0.00,VWS V14.01,2013-06-13 09:34:00,
2013-06-13 04:35:00,75.8,70.6,29.79,West,271,2.0,3.0,84,0.00,,SCT110,0.00,0.00,VWS V14.01,2013-06-13 09:35:00,
2013-06-13 04:39:00,75.8,71.0,29.79,SW,232,0.0,4.0,85,0.00,,OVC049,0.00,0.00,VWS V14.01,2013-06-13 09:39:00,
2013-06-13 04:40:00,75.8,71.0,29.79,SW,232,0.0,4.0,85,0.00,,SCT110,0.00,0.00,VWS V14.01,2013-06-13 09:40:00,
2013-06-13 04:44:00,75.6,71.1,29.79,SW,226,1.0,5.0,86,0.00,,OVC049,0.00,0.00,VWS V14.01,2013-06-13 09:44:00,
2013-06-13 04:45:00,75.6,71.1,29.79,SW,226,1.0,5.0,86,0.00,,SCT110,0.00,0.00,VWS V14.01,2013-06-13 09:45:00,
2013-06-13 04:49:00,75.6,71.1,29.79,NW,304,2.0,3.0,86,0.00,,OVC049,0.00,0.00,VWS V14.01,2013-06-13 09:49:00,
2013-06-13 04:50:00,75.7,71.2,29.79,WSW,252,3.0,4.0,86,0.00,,SCT110,0.00,0.00,VWS V14.01,2013-06-13 09:50:00,
2013-06-13 04:54:00,75.8,71.3,29.79,West,262,0.0,4.0,86,0.00,,OVC049,0.00,0.00,VWS V14.01,2013-06-13 09:54:00,
2013-06-13 04:55:00,75.8,71.3,29.79,West,262,0.0,4.0,86,0.00,,SCT110,0.00,0.00,VWS V14.01,2013-06-13 09:55:00,
2013-06-13 04:59:00,75.6,71.1,29.80,West,262,0.0,1.0,86,0.00,,OVC049,0.00,0.00,VWS V14.01,2013-06-13 09:59:00,
2013-06-13 05:00:00,75.6,71.5,29.80,West,262,0.0,1.0,87,0.00,,SCT110,0.00,0.00,VWS V14.01,2013-06-13 10:00:00,
2013-06-13 05:04:00,75.4,71.3,29.80,West,262,0.0,1.0,87,0.00,,OVC041,0.00,0.00,VWS V14.01,2013-06-13 10:04:00,
2013-06-13 05:05:00,75.4,71.3,29.80,West,262,0.0,1.0,87,0.00,,SCT110,0.00,0.00,VWS V14.01,2013-06-13 10:05:00,
2013-06-13 05:09:00,75.3,70.8,29.80,WSW,246,0.0,4.0,86,0.00,,OVC041,0.00,0.00,VWS V14.01,2013-06-13 10:09:00,
2013-06-13 05:10:00,75.2,70.7,29.80,WSW,246,1.0,4.0,86,0.00,,SCT110,0.00,0.00,VWS V14.01,2013-06-13 10:10:00,
2013-06-13 05:14:00,75.0,69.1,29.81,SSW,201,4.0,4.0,82,0.00,,OVC041,0.00,0.00,VWS V14.01,2013-06-13 10:14:00,
2013-06-13 05:15:00,75.0,68.4,29.81,South,170,0.0,4.0,80,0.00,,SCT110,0.00,0.00,VWS V14.01,2013-06-13 10:15:00,
2013-06-13 05:19:00,74.9,67.9,29.81,NW,314,0.0,2.0,79,0.00,,OVC041,0.00,0.00,VWS V14.01,2013-06-13 10:19:00,
2013-06-13 05:20:00,74.8,67.5,29.81,NW,314,0.0,2.0,78,0.00,,SCT110,0.00,0.00,VWS V14.01,2013-06-13 10:20:00,
2013-06-13 05:24:00,74.3,66.6,29.81,NW,314,0.0,1.0,77,0.00,,OVC041,0.00,0.00,VWS V14.01,2013-06-13 10:24:00,
2013-06-13 05:25:00,74.2,66.9,29.81,NW,314,0.0,1.0,78,0.00,,SCT110,0.00,0.00,VWS V14.01,2013-06-13 10:25:00,
2013-06-13 05:29:00,73.8,66.2,29.81,WNW,294,0.0,2.0,77,0.00,,OVC041,0.00,0.00,VWS V14.01,2013-06-13 10:29:00,
2013-06-13 05:30:00,73.8,66.2,29.81,WNW,294,0.0,2.0,77,0.00,,SCT110,0.00,0.00,VWS V14.01,2013-06-13 10:30:00,
2013-06-13 05:35:00,73.3,65.3,29.81,West,279,0.0,3.0,76,0.00,,OVC041,0.00,0.00,VWS V14.01,2013-06-13 10:35:00,
2013-06-13 05:40:00,72.8,65.2,29.81,West,279,0.0,0.0,77,0.00,,OVC041,0.00,0.00,VWS V14.01,2013-06-13 10:40:00,
2013-06-13 05:45:00,72.4,65.2,29.82,West,279,0.0,1.0,78,0.00,,OVC041,0.00,0.00,VWS V14.01,2013-06-13 10:45:00,
2013-06-13 05:50:00,71.9,64.7,29.82,West,279,0.0,1.0,78,0.00,,OVC041,0.00,0.00,VWS V14.01,2013-06-13 10:50:00,
2013-06-13 05:55:00,71.6,64.8,29.82,West,279,0.0,0.0,79,0.00,,OVC041,0.00,0.00,VWS V14.01,2013-06-13 10:55:00,
2013-06-13 06:00:00,71.5,64.7,29.83,West,279,0.0,0.0,79,0.00,,OVC041,0.00,5.00,VWS V14.01,2013-06-13 11:00:00,
2013-06-13 06:05:00,71.4,64.6,29.83,West,279,0.0,0.0,79,0.00,,FEW065,0.00,7.00,VWS V14.01,2013-06-13 11:05:00,
2013-06-13 06:10:00,71.2,64.7,29.83,West,279,0.0,0.0,80,0.00,,FEW065,0.00,11.00,VWS V14.01,2013-06-13 11:10:00,
2013-06-13 06:15:00,71.0,64.5,29.83,West,279,0.0,0.0,80,0.00,,FEW065,0.00,12.00,VWS V14.01,2013-06-13 11:15:00,
2013-06-13 06:20:00,70.5,64.4,29.83,West,279,0.0,0.0,81,0.00,,FEW065,0.00,16.00,VWS V14.01,2013-06-13 11:20:00,
2013-06-13 06:25:00,70.2,64.4,29.83,West,279,0.0,0.0,82,0.00,,FEW065,0.00,18.00,VWS V14.01,2013-06-13 11:25:00,
2013-06-13 06:30:00,70.1,64.7,29.84,West,279,0.0,1.0,83,0.00,,FEW065,0.00,19.00,VWS V14.01,2013-06-13 11:30:00,
2013-06-13 06:35:00,70.1,64.7,29.84,West,279,0.0,0.0,83,0.00,,FEW065,0.00,21.00,VWS V14.01,2013-06-13 11:35:00,
2013-06-13 06:40:00,69.9,64.5,29.84,West,279,0.0,1.0,83,0.00,,FEW065,0.00,23.00,VWS V14.01,2013-06-13 11:40:00,
2013-06-13 06:45:00,69.8,64.4,29.85,West,279,0.0,1.0,83,0.00,,FEW065,0.00,23.00,VWS V14.01,2013-06-13 11:45:00,
2013-06-13 06:50:00,69.5,64.1,29.85,SSW,200,0.0,2.0,83,0.00,,FEW065,0.00,21.00,VWS V14.01,2013-06-13 11:50:00,
2013-06-13 06:55:00,69.5,63.8,29.85,ESE,109,0.0,5.0,82,0.00,,FEW065,0.00,23.00,VWS V14.01,2013-06-13 11:55:00,
2013-06-13 07:00:00,69.4,63.0,29.85,SE,140,2.0,2.0,80,0.00,,FEW065,0.00,25.00,VWS V14.01,2013-06-13 12:00:00,
2013-06-13 07:05:00,69.3,62.5,29.85,SSE,157,0.0,3.0,79,0.00,,CLR,0.00,25.00,VWS V14.01,2013-06-13 12:05:00,
2013-06-13 07:10:00,69.0,62.2,29.85,SSE,159,3.0,3.0,79,0.00,,CLR,0.00,26.00,VWS V14.01,2013-06-13 12:10:00,
2013-06-13 07:15:00,68.9,62.1,29.86,SSW,207,0.0,0.0,79,0.00,,CLR,0.00,30.00,VWS V14.01,2013-06-13 12:15:00,
2013-06-13 07:20:00,68.8,62.4,29.86,SSW,207,0.0,0.0,80,0.00,,CLR,0.00,33.00,VWS V14.01,2013-06-13 12:20:00,
2013-06-13 07:25:00,68.8,62.4,29.86,SSW,207,0.0,0.0,80,0.00,,CLR,0.00,35.00,VWS V14.01,2013-06-13 12:25:00,
2013-06-13 07:30:00,68.9,62.5,29.86,SSW,207,0.0,0.0,80,0.00,,CLR,0.00,35.00,VWS V14.01,2013-06-13 12:30:00,
2013-06-13 07:35:00,68.9,62.5,29.86,WSW,237,0.0,0.0,80,0.00,,CLR,0.00,37.00,VWS V14.01,2013-06-13 12:35:00,
2013-06-13 07:40:00,68.9,62.5,29.86,WSW,237,0.0,0.0,80,0.00,,CLR,0.00,33.00,VWS V14.01,2013-06-13 12:40:00,
2013-06-13 07:45:00,68.7,62.3,29.86,WSW,237,0.0,0.0,80,0.00,,CLR,0.00,40.00,VWS V14.01,2013-06-13 12:45:00,
2013-06-13 07:50:00,68.6,61.8,29.86,WSW,237,0.0,0.0,79,0.00,,CLR,0.00,40.00,VWS V14.01,2013-06-13 12:50:00,
2013-06-13 07:55:00,68.7,61.6,29.86,SSE,164,2.0,2.0,78,0.00,,SCT110,0.00,40.00,VWS V14.01,2013-06-13 12:55:00,
2013-06-13 07:56:00,68.7,61.6,29.86,SSE,166,1.0,2.0,78,0.00,,CLR,0.00,40.00,VWS V14.01,2013-06-13 12:56:00,
2013-06-13 08:00:00,68.5,61.4,29.87,WNW,288,0.0,4.0,78,0.00,,SCT110,0.00,49.00,VWS V14.01,2013-06-13 13:00:00,
2013-06-13 08:01:00,68.5,61.4,29.87,WNW,288,0.0,0.0,78,0.00,,CLR,0.00,54.00,VWS V14.01,2013-06-13 13:01:00,
2013-06-13 08:05:00,68.4,60.9,29.87,WSW,237,1.0,2.0,77,0.00,,SCT110,0.00,51.00,VWS V14.01,2013-06-13 13:05:00,
2013-06-13 08:06:00,68.4,60.9,29.87,WSW,237,0.0,2.0,77,0.00,,CLR,0.00,51.00,VWS V14.01,2013-06-13 13:06:00,
2013-06-13 08:10:00,68.5,61.4,29.87,WNW,292,0.0,4.0,78,0.00,,SCT110,0.00,56.00,VWS V14.01,2013-06-13 13:10:00,
2013-06-13 08:11:00,68.5,60.6,29.87,WNW,292,2.0,2.0,76,0.00,,CLR,0.00,56.00,VWS V14.01,2013-06-13 13:11:00,
2013-06-13 08:15:00,68.7,60.8,29.87,East,80,0.0,5.0,76,0.00,,SCT110,0.00,62.00,VWS V14.01,2013-06-13 13:15:00,
2013-06-13 08:16:00,68.7,60.8,29.87,East,94,1.0,1.0,76,0.00,,CLR,0.00,84.00,VWS V14.01,2013-06-13 13:16:00,
2013-06-13 08:20:00,69.0,61.5,29.87,South,175,0.0,2.0,77,0.00,,SCT110,0.00,65.00,VWS V14.01,2013-06-13 13:20:00,
2013-06-13 08:21:00,69.0,61.5,29.87,South,175,0.0,1.0,77,0.00,,CLR,0.00,65.00,VWS V14.01,2013-06-13 13:21:00,
2013-06-13 08:25:00,69.3,61.4,29.87,SW,234,1.0,3.0,76,0.00,,SCT110,0.00,63.00,VWS V14.01,2013-06-13 13:25:00,
2013-06-13 08:26:00,69.4,61.5,29.87,SW,234,0.0,2.0,76,0.00,,CLR,0.00,63.00,VWS V14.01,2013-06-13 13:26:00,
2013-06-13 08:30:00,69.6,62.1,29.87,SW,234,0.0,2.0,77,0.00,,SCT110,0.00,65.00,VWS V14.01,2013-06-13 13:30:00,
2013-06-13 08:31:00,69.6,61.7,29.87,SW,234,0.0,0.0,76,0.00,,CLR,0.00,67.00,VWS V14.01,2013-06-13 13:31:00,
2013-06-13 08:35:00,69.9,62.0,29.87,SW,234,1.0,2.0,76,0.00,,SCT110,0.00,77.00,VWS V14.01,2013-06-13 13:35:00,
2013-06-13 08:36:00,70.0,62.8,29.87,SW,234,1.0,1.0,78,0.00,,CLR,0.00,77.00,VWS V14.01,2013-06-13 13:36:00,
2013-06-13 08:40:00,70.0,62.5,29.87,WNW,289,0.0,5.0,77,0.00,,SCT110,0.00,374.00,VWS V14.01,2013-06-13 13:40:00,
2013-06-13 08:41:00,69.9,62.7,29.87,WNW,288,0.0,0.0,78,0.00,,CLR,0.00,374.00,VWS V14.01,2013-06-13 13:41:00,
2013-06-13 08:45:00,69.9,63.1,29.88,WNW,288,0.0,1.0,79,0.00,,SCT110,0.00,251.00,VWS V14.01,2013-06-13 13:45:00,
2013-06-13 08:46:00,69.8,62.6,29.88,WNW,288,0.0,1.0,78,0.00,,CLR,0.00,251.00,VWS V14.01,2013-06-13 13:46:00,
2013-06-13 08:50:00,69.7,61.8,29.88,SSW,209,0.0,2.0,76,0.00,,SCT110,0.00,459.00,VWS V14.01,2013-06-13 13:50:00,
2013-06-13 08:51:00,69.7,62.9,29.88,SSW,209,0.0,1.0,79,0.00,,CLR,0.00,429.00,VWS V14.01,2013-06-13 13:51:00,
2013-06-13 08:55:00,70.0,62.8,29.88,SSW,210,0.0,1.0,78,0.00,,SCT110,0.00,381.00,VWS V14.01,2013-06-13 13:55:00,
2013-06-13 08:56:00,70.0,62.8,29.88,SSW,210,1.0,2.0,78,0.00,,CLR,0.00,381.00,VWS V14.01,2013-06-13 13:56:00,
2013-06-13 09:00:00,70.0,62.8,29.88,SSW,210,0.0,2.0,78,0.00,,SCT110,0.00,533.00,VWS V14.01,2013-06-13 14:00:00,
2013-06-13 09:01:00,70.1,62.9,29.88,SSW,210,0.0,0.0,78,0.00,,CLR,0.00,536.00,VWS V14.01,2013-06-13 14:01:00,
2013-06-13 09:05:00,70.6,63.0,29.88,SSW,209,1.0,2.0,77,0.00,,SCT110,0.00,548.00,VWS V14.01,2013-06-13 14:05:00,
2013-06-13 09:06:00,70.7,62.4,29.88,SSW,209,0.0,1.0,75,0.00,,CLR,0.00,550.00,VWS V14.01,2013-06-13 14:06:00,
2013-06-13 09:10:00,71.2,62.5,29.88,ESE,116,0.0,2.0,74,0.00,,SCT110,0.00,564.00,VWS V14.01,2013-06-13 14:10:00,
2013-06-13 09:11:00,71.2,62.1,29.88,ESE,116,0.0,1.0,73,0.00,,CLR,0.00,566.00,VWS V14.01,2013-06-13 14:11:00,
2013-06-13 09:15:00,71.5,63.9,29.88,ESE,117,0.0,1.0,77,0.00,,SCT110,0.00,577.00,VWS V14.01,2013-06-13 14:15:00,
2013-06-13 09:16:00,71.6,64.0,29.88,ESE,117,0.0,0.0,77,0.00,,CLR,0.00,580.00,VWS V14.01,2013-06-13 14:16:00,
2013-06-13 09:20:00,71.7,64.1,29.88,ESE,119,0.0,1.0,77,0.00,,SCT110,0.00,592.00,VWS V14.01,2013-06-13 14:20:00,
2013-06-13 09:21:00,71.7,63.4,29.88,ESE,119,1.0,2.0,75,0.00,,CLR,0.00,598.00,VWS V14.01,2013-06-13 14:21:00,
2013-06-13 09:25:00,72.1,63.4,29.88,SE,128,0.0,2.0,74,0.00,,SCT110,0.00,605.00,VWS V14.01,2013-06-13 14:25:00,
2013-06-13 09:26:00,72.0,63.3,29.88,SE,139,0.0,2.0,74,0.00,,CLR,0.00,612.00,VWS V14.01,2013-06-13 14:26:00,
2013-06-13 09:30:00,71.9,64.3,29.88,SE,139,0.0,2.0,77,0.00,,SCT110,0.00,621.00,VWS V14.01,2013-06-13 14:30:00,
2013-06-13 09:31:00,72.0,64.0,29.88,SE,139,0.0,1.0,76,0.00,,CLR,0.00,626.00,VWS V14.01,2013-06-13 14:31:00,
2013-06-13 09:35:00,72.5,63.8,29.88,SE,139,0.0,2.0,74,0.00,,SCT110,0.00,635.00,VWS V14.01,2013-06-13 14:35:00,
2013-06-13 09:36:00,72.6,63.5,29.88,WNW,284,1.0,3.0,73,0.00,,CLR,0.00,636.00,VWS V14.01,2013-06-13 14:36:00,
2013-06-13 09:40:00,72.8,64.0,29.88,WSW,251,3.0,4.0,74,0.00,,SCT110,0.00,650.00,VWS V14.01,2013-06-13 14:40:00,
2013-06-13 09:41:00,72.7,63.5,29.88,SW,217,2.0,3.0,73,0.00,,CLR,0.00,652.00,VWS V14.01,2013-06-13 14:41:00,
2013-06-13 09:45:00,73.1,65.8,29.88,South,180,1.0,3.0,78,0.00,,SCT110,0.00,663.00,VWS V14.01,2013-06-13 14:45:00,
2013-06-13 09:46:00,73.1,63.5,29.88,SSE,168,0.0,1.0,72,0.00,,CLR,0.00,664.00,VWS V14.01,2013-06-13 14:46:00,
2013-06-13 09:50:00,73.2,64.4,29.88,SSE,165,0.0,1.0,74,0.00,,SCT110,0.00,675.00,VWS V14.01,2013-06-13 14:50:00,
2013-06-13 09:51:00,73.4,65.0,29.88,SSE,165,0.0,0.0,75,0.00,,CLR,0.00,679.00,VWS V14.01,2013-06-13 14:51:00,
2013-06-13 09:55:00,73.7,64.1,29.88,SE,134,0.0,2.0,72,0.00,,SCT110,0.00,693.00,VWS V14.01,2013-06-13 14:55:00,
2013-06-13 09:56:00,73.8,64.6,29.88,East,88,1.0,1.0,73,0.00,,CLR,0.00,694.00,VWS V14.01,2013-06-13 14:56:00,
2013-06-13 10:00:00,73.9,65.1,29.89,East,88,1.0,1.0,74,0.00,,SCT110,0.00,705.00,VWS V14.01,2013-06-13 15:00:00,
2013-06-13 10:01:00,73.9,63.9,29.89,East,88,0.0,1.0,71,0.00,,CLR,0.00,710.00,VWS V14.01,2013-06-13 15:01:00,
2013-06-13 10:05:00,74.1,64.1,29.89,ESE,122,1.0,1.0,71,0.00,,SCT110,0.00,719.00,VWS V14.01,2013-06-13 15:05:00,
2013-06-13 10:06:00,74.2,65.0,29.89,ESE,122,0.0,2.0,73,0.00,,CLR,0.00,719.00,VWS V14.01,2013-06-13 15:06:00,
2013-06-13 10:10:00,74.5,65.7,29.89,South,188,2.0,3.0,74,0.00,,SCT110,0.00,735.00,VWS V14.01,2013-06-13 15:10:00,
2013-06-13 10:11:00,74.5,66.8,29.89,South,188,0.0,2.0,77,0.00,,CLR,0.00,740.00,VWS V14.01,2013-06-13 15:11:00,
2013-06-13 10:15:00,74.5,64.5,29.89,SW,219,0.0,3.0,71,0.00,,SCT110,0.00,747.00,VWS V14.01,2013-06-13 15:15:00,
2013-06-13 10:16:00,74.4,64.8,29.89,SW,219,1.0,1.0,72,0.00,,CLR,0.00,752.00,VWS V14.01,2013-06-13 15:16:00,
2013-06-13 10:20:00,74.4,65.6,29.89,SW,215,1.0,2.0,74,0.00,,SCT110,0.00,759.00,VWS V14.01,2013-06-13 15:20:00,
2013-06-13 10:21:00,74.5,65.7,29.89,SW,215,0.0,1.0,74,0.00,,CLR,0.00,763.00,VWS V14.01,2013-06-13 15:21:00,
2013-06-13 10:25:00,75.1,65.5,29.89,SW,227,0.0,2.0,72,0.00,,SCT110,0.00,765.00,VWS V14.01,2013-06-13 15:25:00,
2013-06-13 10:26:00,75.2,65.6,29.89,SW,227,1.0,2.0,72,0.00,,CLR,0.00,777.00,VWS V14.01,2013-06-13 15:26:00,
2013-06-13 10:30:00,74.9,64.1,29.89,SW,218,0.0,2.0,69,0.00,,SCT110,0.00,788.00,VWS V14.01,2013-06-13 15:30:00,
2013-06-13 10:31:00,74.8,64.0,29.89,SW,219,1.0,3.0,69,0.00,,CLR,0.00,788.00,VWS V14.01,2013-06-13 15:31:00,
2013-06-13 10:35:00,74.8,64.0,29.89,ESE,118,0.0,3.0,69,0.00,,SCT110,0.00,796.00,VWS V14.01,2013-06-13 15:35:00,
2013-06-13 10:37:00,74.8,64.8,29.89,SW,236,1.0,3.0,71,0.00,,CLR,0.00,802.00,VWS V14.01,2013-06-13 15:37:00,
2013-06-13 10:40:00,74.9,63.6,29.89,WNW,302,3.0,3.0,68,0.00,,SCT110,0.00,805.00,VWS V14.01,2013-06-13 15:40:00,
2013-06-13 10:42:00,74.9,64.5,29.89,West,273,0.0,3.0,70,0.00,,CLR,0.00,809.00,VWS V14.01,2013-06-13 15:42:00,
2013-06-13 10:45:00,75.3,66.8,29.88,West,269,1.0,4.0,75,0.00,,SCT110,0.00,814.00,VWS V14.01,2013-06-13 15:45:00,
2013-06-13 10:47:00,75.6,65.9,29.88,West,265,0.0,1.0,72,0.00,,CLR,0.00,817.00,VWS V14.01,2013-06-13 15:47:00,
2013-06-13 10:50:00,76.2,67.7,29.88,West,265,0.0,1.0,75,0.00,,SCT110,0.00,824.00,VWS V14.01,2013-06-13 15:50:00,
2013-06-13 10:52:00,76.4,66.7,29.88,SSE,168,0.0,1.0,72,0.00,,CLR,0.00,819.00,VWS V14.01,2013-06-13 15:52:00,
2013-06-13 10:55:00,76.5,66.8,29.88,SW,217,0.0,3.0,72,0.00,,SCT110,0.00,837.00,VWS V14.01,2013-06-13 15:55:00,
2013-06-13 10:57:00,76.4,65.5,29.88,SW,217,1.0,2.0,69,0.00,,CLR,0.00,840.00,VWS V14.01,2013-06-13 15:57:00,
2013-06-13 11:00:00,76.1,64.8,29.89,SW,216,1.0,2.0,68,0.00,,SCT110,0.00,846.00,VWS V14.01,2013-06-13 16:00:00,
2013-06-13 11:02:00,76.2,66.9,29.89,SW,215,0.0,1.0,73,0.00,,CLR,0.00,849.00,VWS V14.01,2013-06-13 16:02:00,
2013-06-13 11:05:00,76.5,65.2,29.89,WSW,244,1.0,3.0,68,0.00,,BKN100,0.00,856.00,VWS V14.01,2013-06-13 16:05:00,
2013-06-13 11:07:00,76.1,65.2,29.89,WSW,244,1.0,2.0,69,0.00,,CLR,0.00,858.00,VWS V14.01,2013-06-13 16:07:00,
2013-06-13 11:10:00,76.0,66.3,29.89,SW,227,1.0,6.0,72,0.00,,SCT110,0.00,865.00,VWS V14.01,2013-06-13 16:10:00,
2013-06-13 11:12:00,76.1,66.8,29.89,WSW,250,2.0,5.0,73,0.00,,CLR,0.00,867.00,VWS V14.01,2013-06-13 16:12:00,
2013-06-13 11:15:00,76.7,65.8,29.89,ESE,112,0.0,5.0,69,0.00,,SCT110,0.00,870.00,VWS V14.01,2013-06-13 16:15:00,
2013-06-13 11:17:00,77.0,66.5,29.89,West,259,1.0,4.0,70,0.00,,CLR,0.00,870.00,VWS V14.01,2013-06-13 16:17:00,
2013-06-13 11:20:00,77.3,66.8,29.89,West,259,0.0,4.0,70,0.00,,SCT110,0.00,879.00,VWS V14.01,2013-06-13 16:20:00,
2013-06-13 11:22:00,77.6,68.7,29.89,West,259,0.0,0.0,74,0.00,,CLR,0.00,882.00,VWS V14.01,2013-06-13 16:22:00,
2013-06-13 11:25:00,77.8,66.0,29.89,WSW,240,1.0,3.0,67,0.00,,SCT110,0.00,891.00,VWS V14.01,2013-06-13 16:25:00,
2013-06-13 11:27:00,77.5,66.1,29.89,NW,316,1.0,3.0,68,0.00,,CLR,0.00,893.00,VWS V14.01,2013-06-13 16:27:00,
2013-06-13 11:30:00,77.2,65.4,29.89,West,277,3.0,6.0,67,0.00,,SCT110,0.00,895.00,VWS V14.01,2013-06-13 16:30:00,
2013-06-13 11:32:00,77.2,65.4,29.89,West,277,1.0,3.0,67,0.00,,CLR,0.00,896.00,VWS V14.01,2013-06-13 16:32:00,
2013-06-13 11:35:00,77.4,66.4,29.89,WSW,248,1.0,4.0,69,0.00,,SCT110,0.00,902.00,VWS V14.01,2013-06-13 16:35:00,
2013-06-13 11:37:00,77.5,65.3,29.89,NNE,22,0.0,4.0,66,0.00,,CLR,0.00,907.00,VWS V14.01,2013-06-13 16:37:00,
2013-06-13 11:40:00,77.7,65.9,29.89,WSW,254,2.0,5.0,67,0.00,,SCT110,0.00,909.00,VWS V14.01,2013-06-13 16:40:00,
2013-06-13 11:42:00,77.7,66.7,29.89,West,259,0.0,4.0,69,0.00,,CLR,0.00,912.00,VWS V14.01,2013-06-13 16:42:00,
2013-06-13 11:45:00,78.2,67.2,29.89,West,262,1.0,4.0,69,0.00,,SCT110,0.00,914.00,VWS V14.01,2013-06-13 16:45:00,
2013-06-13 11:47:00,78.2,67.6,29.89,WSW,242,0.0,3.0,70,0.00,,CLR,0.00,918.00,VWS V14.01,2013-06-13 16:47:00,
2013-06-13 11:50:00,78.4,67.0,29.89,SSE,161,0.0,3.0,68,0.00,,SCT110,0.00,921.00,VWS V14.01,2013-06-13 16:50:00,
2013-06-13 11:52:00,78.6,66.3,29.89,SSE,161,1.0,1.0,66,0.00,,CLR,0.00,926.00,VWS V14.01,2013-06-13 16:52:00,
2013-06-13 11:55:00,78.6,68.4,29.89,WSW,252,0.0,3.0,71,0.00,,SCT110,0.00,933.00,VWS V14.01,2013-06-13 16:55:00,
2013-06-13 11:57:00,78.7,66.0,29.89,East,94,0.0,2.0,65,0.00,,CLR,0.00,930.00,VWS V14.01,2013-06-13 16:57:00,
2013-06-13 12:00:00,78.9,67.4,29.89,WSW,243,2.0,5.0,68,0.00,,SCT110,0.00,933.00,VWS V14.01,2013-06-13 17:00:00,
2013-06-13 12:02:00,78.4,65.7,29.89,SE,143,0.0,3.0,65,0.00,,CLR,0.00,937.00,VWS V14.01,2013-06-13 17:02:00,
2013-06-13 12:05:00,78.5,66.2,29.89,WSW,248,0.0,4.0,66,0.00,,SCT110,0.00,939.00,VWS V14.01,2013-06-13 17:05:00,
2013-06-13 12:07:00,78.5,66.2,29.89,South,182,2.0,2.0,66,0.00,,CLR,0.00,939.00,VWS V14.01,2013-06-13 17:07:00,
2013-06-13 12:10:00,78.8,68.6,29.89,SW,226,0.0,3.0,71,0.00,,SCT110,0.00,940.00,VWS V14.01,2013-06-13 17:10:00,
2013-06-13 12:12:00,78.7,66.4,29.89,SW,228,0.0,3.0,66,0.00,,CLR,0.00,944.00,VWS V14.01,2013-06-13 17:12:00,
2013-06-13 12:15:00,78.9,66.2,29.88,WSW,243,1.0,5.0,65,0.00,,SCT110,0.00,942.00,VWS V14.01,2013-06-13 17:15:00,
2013-06-13 12:17:00,79.0,68.4,29.88,WSW,244,0.0,3.0,70,0.00,,CLR,0.00,947.00,VWS V14.01,2013-06-13 17:17:00,
2013-06-13 12:20:00,79.1,66.8,29.88,West,261,3.0,4.0,66,0.00,,SCT110,0.00,951.00,VWS V14.01,2013-06-13 17:20:00,
2013-06-13 12:22:00,79.0,66.7,29.88,SW,229,0.0,6.0,66,0.00,,CLR,0.00,951.00,VWS V14.01,2013-06-13 17:22:00,
2013-06-13 12:25:00,79.2,69.0,29.88,SSW,206,0.0,6.0,71,0.00,,SCT110,0.00,953.00,VWS V14.01,2013-06-13 17:25:00,
2013-06-13 12:27:00,79.3,66.5,29.88,SSW,206,0.0,2.0,65,0.00,,CLR,0.00,956.00,VWS V14.01,2013-06-13 17:27:00,
2013-06-13 12:30:00,79.6,69.0,29.88,SW,223,0.0,3.0,70,0.00,,SCT110,0.00,958.00,VWS V14.01,2013-06-13 17:30:00,
2013-06-13 12:32:00,79.8,66.6,29.88,WSW,257,0.0,4.0,64,0.00,,CLR,0.00,956.00,VWS V14.01,2013-06-13 17:32:00,
2013-06-13 12:35:00,80.2,70.8,29.88,WSW,257,1.0,4.0,73,0.00,,SCT110,0.00,958.00,VWS V14.01,2013-06-13 17:35:00,
2013-06-13 12:37:00,80.5,69.4,29.88,South,180,0.0,2.0,69,0.00,,CLR,0.00,965.00,VWS V14.01,2013-06-13 17:37:00,
2013-06-13 12:40:00,80.6,69.1,29.88,SSW,196,1.0,2.0,68,0.00,,SCT110,0.00,963.00,VWS V14.01,2013-06-13 17:40:00,
2013-06-13 12:42:00,80.1,67.3,29.88,SSW,196,0.0,2.0,65,0.00,,CLR,0.00,967.00,VWS V14.01,2013-06-13 17:42:00,
2013-06-13 12:45:00,80.7,69.2,29.88,SSW,196,0.0,2.0,68,0.00,,SCT110,0.00,969.00,VWS V14.01,2013-06-13 17:45:00,
2013-06-13 12:47:00,81.0,69.0,29.88,WNW,299,0.0,6.0,67,0.00,,CLR,0.00,965.00,VWS V14.01,2013-06-13 17:47:00,
2013-06-13 12:50:00,81.0,69.4,29.88,West,267,2.0,6.0,68,0.00,,SCT110,0.00,970.00,VWS V14.01,2013-06-13 17:50:00,
2013-06-13 12:52:00,80.9,69.4,29.88,WSW,257,0.0,2.0,68,0.00,,CLR,0.00,970.00,VWS V14.01,2013-06-13 17:52:00,
2013-06-13 12:55:00,80.8,67.9,29.88,NW,305,0.0,5.0,65,0.00,,SCT110,0.00,967.00,VWS V14.01,2013-06-13 17:55:00,
2013-06-13 12:58:00,81.1,68.7,29.88,WSW,257,4.0,7.0,66,0.00,,CLR,0.00,970.00,VWS V14.01,2013-06-13 17:58:00,
2013-06-13 13:00:00,81.0,67.7,29.88,SW,215,3.0,7.0,64,0.00,,SCT110,0.00,969.00,VWS V14.01,2013-06-13 18:00:00,
2013-06-13 13:03:00,80.3,66.6,29.88,SW,221,3.0,7.0,63,0.00,,CLR,0.00,969.00,VWS V14.01,2013-06-13 18:03:00,
2013-06-13 13:05:00,80.3,67.9,29.88,West,273,0.0,7.0,66,0.00,,SCT110,0.00,970.00,VWS V14.01,2013-06-13 18:05:00,
2013-06-13 13:08:00,80.6,68.2,29.88,WSW,240,3.0,4.0,66,0.00,,CLR,0.00,969.00,VWS V14.01,2013-06-13 18:08:00,
2013-06-13 13:10:00,80.6,67.3,29.88,WNW,284,0.0,4.0,64,0.00,,SCT110,0.00,969.00,VWS V14.01,2013-06-13 18:10:00,
2013-06-13 13:13:00,80.9,68.5,29.88,SSW,199,2.0,2.0,66,0.00,,CLR,0.00,976.00,VWS V14.01,2013-06-13 18:13:00,
2013-06-13 13:15:00,81.4,68.5,29.88,ENE,69,1.0,3.0,65,0.00,,SCT110,0.00,972.00,VWS V14.01,2013-06-13 18:15:00,
2013-06-13 13:18:00,81.6,66.9,29.88,SSW,196,1.0,3.0,61,0.00,,CLR,0.00,856.00,VWS V14.01,2013-06-13 18:18:00,
2013-06-13 13:20:00,81.4,66.7,29.88,WSW,243,1.0,4.0,61,0.00,,SCT110,0.00,972.00,VWS V14.01,2013-06-13 18:20:00,
2013-06-13 13:23:00,81.4,67.6,29.88,SE,126,1.0,3.0,63,0.00,,CLR,0.00,963.00,VWS V14.01,2013-06-13 18:23:00,
2013-06-13 13:25:00,81.9,69.9,29.88,SE,126,0.0,3.0,67,0.00,,SCT110,0.00,970.00,VWS V14.01,2013-06-13 18:25:00,
2013-06-13 13:28:00,82.1,69.6,29.88,NNW,345,0.0,4.0,66,0.00,,CLR,0.00,969.00,VWS V14.01,2013-06-13 18:28:00,
2013-06-13 13:30:00,81.9,69.4,29.88,NNW,346,1.0,4.0,66,0.00,,SCT110,0.00,967.00,VWS V14.01,2013-06-13 18:30:00,
2013-06-13 13:33:00,81.6,67.8,29.88,NW,312,3.0,3.0,63,0.00,,CLR,0.00,965.00,VWS V14.01,2013-06-13 18:33:00,
2013-06-13 13:35:00,81.3,66.6,29.88,SW,233,0.0,4.0,61,0.00,,SCT110,0.00,963.00,VWS V14.01,2013-06-13 18:35:00,
2013-06-13 13:38:00,81.7,67.4,29.88,WSW,240,4.0,5.0,62,0.00,,CLR,0.00,965.00,VWS V14.01,2013-06-13 18:38:00,
2013-06-13 13:40:00,81.6,66.9,29.88,WSW,238,2.0,5.0,61,0.00,,SCT110,0.00,963.00,VWS V14.01,2013-06-13 18:40:00,
2013-06-13 13:43:00,81.7,69.7,29.88,SSW,200,0.0,2.0,67,0.00,,CLR,0.00,956.00,VWS V14.01,2013-06-13 18:43:00,
2013-06-13 13:45:00,82.3,70.2,29.87,SSW,200,0.0,2.0,67,0.00,,SCT110,0.00,954.00,VWS V14.01,2013-06-13 18:45:00,
2013-06-13 13:48:00,82.3,68.5,29.87,WSW,253,3.0,3.0,63,0.00,,CLR,0.00,956.00,VWS V14.01,2013-06-13 18:48:00,
2013-06-13 13:50:00,82.1,68.7,29.87,South,186,0.0,3.0,64,0.00,,SCT110,0.00,956.00,VWS V14.01,2013-06-13 18:50:00,
2013-06-13 13:53:00,82.5,69.6,29.87,SSW,206,1.0,3.0,65,0.00,,CLR,0.00,946.00,VWS V14.01,2013-06-13 18:53:00,
2013-06-13 13:55:00,82.8,70.7,29.87,SSW,207,2.0,3.0,67,0.00,,SCT110,0.00,944.00,VWS V14.01,2013-06-13 18:55:00,
2013-06-13 13:58:00,83.3,68.5,29.87,WNW,296,0.0,3.0,61,0.00,,CLR,0.00,951.00,VWS V14.01,2013-06-13 18:58:00,
2013-06-13 14:00:00,83.2,70.2,29.86,South,174,0.0,3.0,65,0.00,,SCT110,0.00,953.00,VWS V14.01,2013-06-13 19:00:00,
2013-06-13 14:03:00,83.2,71.1,29.86,WNW,294,1.0,3.0,67,0.00,,CLR,0.00,947.00,VWS V14.01,2013-06-13 19:03:00,
2013-06-13 14:05:00,83.6,70.6,29.86,WNW,294,2.0,3.0,65,0.00,,SCT110,0.00,947.00,VWS V14.01,2013-06-13 19:05:00,
2013-06-13 14:08:00,83.2,68.8,29.86,SW,232,2.0,3.0,62,0.00,,CLR,0.00,944.00,VWS V14.01,2013-06-13 19:08:00,
2013-06-13 14:10:00,82.9,67.1,29.86,West,261,2.0,5.0,59,0.00,,SCT110,0.00,942.00,VWS V14.01,2013-06-13 19:10:00,
2013-06-13 14:13:00,82.9,69.5,29.86,NW,324,1.0,5.0,64,0.00,,CLR,0.00,939.00,VWS V14.01,2013-06-13 19:13:00,
2013-06-13 14:15:00,82.8,68.0,29.86,West,265,1.0,5.0,61,0.00,,SCT110,0.00,939.00,VWS V14.01,2013-06-13 19:15:00,
2013-06-13 14:18:00,82.7,68.8,29.86,WSW,253,1.0,4.0,63,0.00,,CLR,0.00,928.00,VWS V14.01,2013-06-13 19:18:00,
2013-06-13 14:20:00,82.9,69.5,29.86,SSE,157,0.0,4.0,64,0.00,,SCT110,0.00,926.00,VWS V14.01,2013-06-13 19:20:00,
2013-06-13 14:23:00,83.2,69.8,29.86,SW,214,1.0,4.0,64,0.00,,CLR,0.00,925.00,VWS V14.01,2013-06-13 19:23:00,
2013-06-13 14:25:00,83.4,72.2,29.86,SW,214,0.0,4.0,69,0.00,,SCT110,0.00,923.00,VWS V14.01,2013-06-13 19:25:00,
2013-06-13 14:28:00,83.4,68.6,29.86,SW,214,0.0,2.0,61,0.00,,CLR,0.00,925.00,VWS V14.01,2013-06-13 19:28:00,
2013-06-13 14:30:00,83.2,68.8,29.86,North,5,0.0,2.0,62,0.00,,SCT110,0.00,916.00,VWS V14.01,2013-06-13 19:30:00,
2013-06-13 14:33:00,83.2,68.8,29.86,WSW,239,0.0,4.0,62,0.00,,CLR,0.00,916.00,VWS V14.01,2013-06-13 19:33:00,
2013-06-13 14:35:00,83.1,69.2,29.86,WSW,238,0.0,4.0,63,0.00,,SCT110,0.00,916.00,VWS V14.01,2013-06-13 19:35:00,
2013-06-13 14:38:00,83.5,69.6,29.86,South,183,1.0,3.0,63,0.00,,CLR,0.00,904.00,VWS V14.01,2013-06-13 19:38:00,
2013-06-13 14:40:00,83.5,68.2,29.86,WNW,286,0.0,3.0,60,0.00,,SCT110,0.00,905.00,VWS V14.01,2013-06-13 19:40:00,
2013-06-13 14:43:00,83.6,69.2,29.86,WNW,287,1.0,1.0,62,0.00,,CLR,0.00,898.00,VWS V14.01,2013-06-13 19:43:00,
2013-06-13 14:45:00,83.5,68.7,29.86,NNE,25,0.0,2.0,61,0.00,,SCT110,0.00,898.00,VWS V14.01,2013-06-13 19:45:00,
2013-06-13 14:48:00,83.5,68.2,29.86,North,355,1.0,2.0,60,0.00,,CLR,0.00,896.00,VWS V14.01,2013-06-13 19:48:00,
2013-06-13 14:50:00,83.7,68.3,29.86,SW,218,1.0,4.0,60,0.00,,SCT110,0.00,896.00,VWS V14.01,2013-06-13 19:50:00,
2013-06-13 14:53:00,84.1,70.6,29.86,NE,38,0.0,2.0,64,0.00,,CLR,0.00,888.00,VWS V14.01,2013-06-13 19:53:00,
2013-06-13 14:55:00,84.3,71.3,29.86,WNW,302,2.0,3.0,65,0.00,,SCT110,0.00,886.00,VWS V14.01,2013-06-13 19:55:00,
2013-06-13 14:58:00,84.2,71.2,29.86,WNW,302,0.0,2.0,65,0.00,,CLR,0.00,882.00,VWS V14.01,2013-06-13 19:58:00,
2013-06-13 15:00:00,84.1,66.7,29.85,WSW,250,1.0,2.0,56,0.00,,SCT110,0.00,875.00,VWS V14.01,2013-06-13 20:00:00,
2013-06-13 15:03:00,83.4,67.1,29.85,WSW,243,2.0,4.0,58,0.00,,CLR,0.00,874.00,VWS V14.01,2013-06-13 20:03:00,
2013-06-13 15:05:00,83.3,67.5,29.85,SSW,209,1.0,4.0,59,0.00,,SCT110,0.00,870.00,VWS V14.01,2013-06-13 20:05:00,
2013-06-13 15:08:00,83.8,70.8,29.85,SSE,149,0.0,3.0,65,0.00,,CLR,0.00,863.00,VWS V14.01,2013-06-13 20:08:00,
2013-06-13 15:10:00,84.0,67.7,29.85,SW,220,0.0,3.0,58,0.00,,SCT110,0.00,860.00,VWS V14.01,2013-06-13 20:10:00,
2013-06-13 15:13:00,83.7,68.8,29.85,WSW,238,1.0,6.0,61,0.00,,CLR,0.00,853.00,VWS V14.01,2013-06-13 20:13:00,
2013-06-13 15:15:00,83.8,68.9,29.85,WSW,238,0.0,6.0,61,0.00,,SCT110,0.00,853.00,VWS V14.01,2013-06-13 20:15:00,
2013-06-13 15:18:00,84.2,67.3,29.85,WSW,249,1.0,5.0,57,0.00,,CLR,0.00,847.00,VWS V14.01,2013-06-13 20:18:00,
2013-06-13 15:20:00,84.0,68.1,29.85,WSW,249,0.0,5.0,59,0.00,,SCT110,0.00,846.00,VWS V14.01,2013-06-13 20:20:00,
2013-06-13 15:24:00,84.4,67.0,29.85,WSW,249,3.0,3.0,56,0.00,,CLR,0.00,837.00,VWS V14.01,2013-06-13 20:24:00,
2013-06-13 15:25:00,84.5,69.1,29.85,WSW,242,3.0,5.0,60,0.00,,SCT110,0.00,833.00,VWS V14.01,2013-06-13 20:25:00,
2013-06-13 15:29:00,84.3,67.9,29.85,SE,146,0.0,4.0,58,0.00,,CLR,0.00,826.00,VWS V14.01,2013-06-13 20:29:00,
2013-06-13 15:30:00,84.2,67.8,29.84,SSE,148,0.0,4.0,58,0.00,,SCT110,0.00,823.00,VWS V14.01,2013-06-13 20:30:00,
2013-06-13 15:34:00,84.4,66.5,29.84,SSE,148,0.0,1.0,55,0.00,,CLR,0.00,817.00,VWS V14.01,2013-06-13 20:34:00,
2013-06-13 15:35:00,84.4,69.0,29.84,SSE,148,1.0,1.0,60,0.00,,SCT110,0.00,810.00,VWS V14.01,2013-06-13 20:35:00,
2013-06-13 15:39:00,84.3,68.4,29.84,East,86,0.0,2.0,59,0.00,,CLR,0.00,807.00,VWS V14.01,2013-06-13 20:39:00,
2013-06-13 15:40:00,84.1,67.2,29.84,WSW,250,1.0,3.0,57,0.00,,SCT110,0.00,803.00,VWS V14.01,2013-06-13 20:40:00,
2013-06-13 15:44:00,83.9,69.0,29.84,WSW,248,2.0,2.0,61,0.00,,CLR,0.00,793.00,VWS V14.01,2013-06-13 20:44:00,
2013-06-13 15:45:00,83.8,68.0,29.84,WSW,248,0.0,3.0,59,0.00,,SCT110,0.00,793.00,VWS V14.01,2013-06-13 20:45:00,
2013-06-13 15:49:00,83.6,69.2,29.84,WSW,248,0.0,3.0,62,0.00,,CLR,0.00,780.00,VWS V14.01,2013-06-13 20:49:00,
2013-06-13 15:50:00,83.7,68.3,29.84,WSW,248,0.0,3.0,60,0.00,,SCT110,0.00,779.00,VWS V14.01,2013-06-13 20:50:00,
2013-06-13 15:54:00,83.8,66.4,29.84,WSW,248,2.0,3.0,56,0.00,,CLR,0.00,766.00,VWS V14.01,2013-06-13 20:54:00,
2013-06-13 15:55:00,83.7,66.9,29.84,WSW,248,1.0,3.0,57,0.00,,SCT110,0.00,765.00,VWS V14.01,2013-06-13 20:55:00,
2013-06-13 15:59:00,83.9,68.5,29.84,ENE,73,0.0,3.0,60,0.00,,CLR,0.00,756.00,VWS V14.01,2013-06-13 20:59:00,
2013-06-13 16:00:00,84.1,69.2,29.84,ENE,73,0.0,3.0,61,0.00,,SCT110,0.00,751.00,VWS V14.01,2013-06-13 21:00:00,
2013-06-13 16:04:00,84.0,66.1,29.84,West,262,0.0,4.0,55,0.00,,CLR,0.00,744.00,VWS V14.01,2013-06-13 21:04:00,
2013-06-13 16:05:00,84.0,69.1,29.84,SW,224,0.0,4.0,61,0.00,,SCT110,0.00,740.00,VWS V14.01,2013-06-13 21:05:00,
2013-06-13 16:09:00,84.2,69.8,29.84,SW,225,1.0,2.0,62,0.00,,CLR,0.00,722.00,VWS V14.01,2013-06-13 21:09:00,
2013-06-13 16:10:00,84.2,67.3,29.84,SE,136,1.0,2.0,57,0.00,,SCT110,0.00,719.00,VWS V14.01,2013-06-13 21:10:00,
2013-06-13 16:14:00,84.3,68.9,29.84,SW,226,2.0,3.0,60,0.00,,CLR,0.00,708.00,VWS V14.01,2013-06-13 21:14:00,
2013-06-13 16:15:00,84.1,69.7,29.84,West,266,2.0,3.0,62,0.00,,SCT110,0.00,707.00,VWS V14.01,2013-06-13 21:15:00,
2013-06-13 16:19:00,83.9,68.5,29.84,WSW,248,2.0,3.0,60,0.00,,CLR,0.00,696.00,VWS V14.01,2013-06-13 21:19:00,
2013-06-13 16:20:00,84.0,70.1,29.84,West,267,0.0,3.0,63,0.00,,SCT110,0.00,691.00,VWS V14.01,2013-06-13 21:20:00,
2013-06-13 16:24:00,84.3,68.4,29.84,WSW,252,5.0,5.0,59,0.00,,CLR,0.00,680.00,VWS V14.01,2013-06-13 21:24:00,
2013-06-13 16:25:00,84.2,69.8,29.84,WSW,252,1.0,5.0,62,0.00,,SCT110,0.00,677.00,VWS V14.01,2013-06-13 21:25:00,
2013-06-13 16:29:00,84.2,71.2,29.84,WSW,252,1.0,2.0,65,0.00,,CLR,0.00,670.00,VWS V14.01,2013-06-13 21:29:00,
2013-06-13 16:30:00,84.2,70.2,29.84,WSW,252,0.0,2.0,63,0.00,,SCT110,0.00,666.00,VWS V14.01,2013-06-13 21:30:00,
2013-06-13 16:34:00,84.4,68.5,29.84,WSW,252,0.0,3.0,59,0.00,,CLR,0.00,650.00,VWS V14.01,2013-06-13 21:34:00,
2013-06-13 16:35:00,84.5,70.5,29.84,WSW,252,0.0,3.0,63,0.00,,SCT110,0.00,650.00,VWS V14.01,2013-06-13 21:35:00,
2013-06-13 16:39:00,84.3,68.9,29.84,NNW,347,0.0,2.0,60,0.00,,CLR,0.00,642.00,VWS V14.01,2013-06-13 21:39:00,
2013-06-13 16:40:00,84.4,68.0,29.84,NNW,347,0.0,2.0,58,0.00,,SCT110,0.00,636.00,VWS V14.01,2013-06-13 21:40:00,
2013-06-13 16:44:00,84.4,69.0,29.84,NNW,347,0.0,2.0,60,0.00,,CLR,0.00,629.00,VWS V14.01,2013-06-13 21:44:00,
2013-06-13 16:45:00,84.3,68.4,29.84,WSW,240,3.0,4.0,59,0.00,,SCT110,0.00,622.00,VWS V14.01,2013-06-13 21:45:00,
2013-06-13 16:49:00,83.9,69.5,29.84,WSW,254,0.0,4.0,62,0.00,,CLR,0.00,613.00,VWS V14.01,2013-06-13 21:49:00,
2013-06-13 16:50:00,84.0,68.1,29.84,SW,234,4.0,4.0,59,0.00,,SCT110,0.00,608.00,VWS V14.01,2013-06-13 21:50:00,
2013-06-13 16:54:00,83.8,68.9,29.84,West,267,2.0,5.0,61,0.00,,CLR,0.00,601.00,VWS V14.01,2013-06-13 21:54:00,
2013-06-13 16:55:00,83.7,68.3,29.84,West,263,1.0,5.0,60,0.00,,SCT110,0.00,601.00,VWS V14.01,2013-06-13 21:55:00,
2013-06-13 16:59:00,83.4,68.1,29.84,WSW,258,3.0,6.0,60,0.00,,CLR,0.00,580.00,VWS V14.01,2013-06-13 21:59:00,
2013-06-13 17:00:00,83.4,68.1,29.84,WSW,253,1.0,6.0,60,0.00,,SCT110,0.00,578.00,VWS V14.01,2013-06-13 22:00:00,
2013-06-13 17:04:00,83.7,69.3,29.84,WSW,246,0.0,2.0,62,0.00,,CLR,0.00,568.00,VWS V14.01,2013-06-13 22:04:00,
2013-06-13 17:05:00,83.8,68.9,29.84,WSW,246,0.0,2.0,61,0.00,,SCT110,0.00,563.00,VWS V14.01,2013-06-13 22:05:00,
2013-06-13 17:09:00,84.0,68.6,29.84,WSW,246,0.0,2.0,60,0.00,,CLR,0.00,554.00,VWS V14.01,2013-06-13 22:09:00,
2013-06-13 17:10:00,84.0,68.6,29.84,WSW,246,1.0,2.0,60,0.00,,SCT110,0.00,552.00,VWS V14.01,2013-06-13 22:10:00,
2013-06-13 17:14:00,83.9,69.0,29.84,WSW,246,0.0,1.0,61,0.00,,CLR,0.00,538.00,VWS V14.01,2013-06-13 22:14:00,
2013-06-13 17:15:00,83.9,68.5,29.84,WSW,244,1.0,1.0,60,0.00,,SCT110,0.00,534.00,VWS V14.01,2013-06-13 22:15:00,
2013-06-13 17:19:00,84.0,67.7,29.84,WNW,286,1.0,4.0,58,0.00,,CLR,0.00,526.00,VWS V14.01,2013-06-13 22:19:00,
2013-06-13 17:20:00,84.0,69.6,29.84,WNW,286,0.0,4.0,62,0.00,,SCT110,0.00,519.00,VWS V14.01,2013-06-13 22:20:00,
2013-06-13 17:24:00,83.9,69.5,29.84,SE,144,0.0,3.0,62,0.00,,CLR,0.00,506.00,VWS V14.01,2013-06-13 22:24:00,
2013-06-13 17:25:00,83.9,68.5,29.84,West,262,1.0,4.0,60,0.00,,SCT110,0.00,506.00,VWS V14.01,2013-06-13 22:25:00,
2013-06-13 17:29:00,83.8,68.4,29.84,NE,34,0.0,2.0,60,0.00,,CLR,0.00,492.00,VWS V14.01,2013-06-13 22:29:00,
2013-06-13 17:30:00,83.7,68.3,29.84,NW,313,1.0,3.0,60,0.00,,SCT110,0.00,489.00,VWS V14.01,2013-06-13 22:30:00,
2013-06-13 17:34:00,83.4,69.0,29.84,WSW,254,0.0,5.0,62,0.00,,CLR,0.00,457.00,VWS V14.01,2013-06-13 22:34:00,
2013-06-13 17:35:00,83.3,68.9,29.84,WSW,254,1.0,5.0,62,0.00,,SCT110,0.00,457.00,VWS V14.01,2013-06-13 22:35:00,
2013-06-13 17:39:00,83.0,68.2,29.84,West,265,0.0,3.0,61,0.00,,CLR,0.00,448.00,VWS V14.01,2013-06-13 22:39:00,
2013-06-13 17:40:00,83.0,68.2,29.84,West,265,2.0,3.0,61,0.00,,SCT110,0.00,445.00,VWS V14.01,2013-06-13 22:40:00,
2013-06-13 17:44:00,82.9,69.5,29.84,SW,229,0.0,6.0,64,0.00,,CLR,0.00,438.00,VWS V14.01,2013-06-13 22:44:00,
2013-06-13 17:45:00,82.9,69.5,29.84,SW,229,0.0,6.0,64,0.00,,SCT110,0.00,436.00,VWS V14.01,2013-06-13 22:45:00,
2013-06-13 17:50:00,83.1,69.2,29.84,SW,229,0.0,1.0,63,0.00,,CLR,0.00,424.00,VWS V14.01,2013-06-13 22:50:00,
2013-06-13 17:55:00,83.1,68.3,29.84,SW,229,0.0,2.0,61,0.00,,CLR,0.00,406.00,VWS V14.01,2013-06-13 22:55:00,
2013-06-13 18:00:00,83.1,69.2,29.84,SW,228,0.0,1.0,63,0.00,,CLR,0.00,390.00,VWS V14.01,2013-06-13 23:00:00,
2013-06-13 18:05:00,82.8,67.5,29.84,SW,224,0.0,6.0,60,0.00,,CLR,0.00,374.00,VWS V14.01,2013-06-13 23:05:00,
2013-06-13 18:10:00,82.3,67.5,29.84,SW,224,1.0,3.0,61,0.00,,CLR,0.00,359.00,VWS V14.01,2013-06-13 23:10:00,
2013-06-13 18:15:00,82.2,68.4,29.84,WSW,244,0.0,3.0,63,0.00,,CLR,0.00,341.00,VWS V14.01,2013-06-13 23:15:00,
2013-06-13 18:20:00,82.1,68.3,29.84,WSW,244,0.0,1.0,63,0.00,,CLR,0.00,327.00,VWS V14.01,2013-06-13 23:20:00,
2013-06-13 18:25:00,82.0,68.2,29.84,WNW,302,0.0,2.0,63,0.00,,CLR,0.00,309.00,VWS V14.01,2013-06-13 23:25:00,
2013-06-13 18:30:00,81.9,69.4,29.84,WNW,294,0.0,1.0,66,0.00,,CLR,0.00,292.00,VWS V14.01,2013-06-13 23:30:00,
2013-06-13 18:35:00,81.5,69.5,29.84,WNW,294,0.0,1.0,67,0.00,,CLR,0.00,278.00,VWS V14.01,2013-06-13 23:35:00,
2013-06-13 18:40:00,81.3,69.3,29.84,WNW,294,0.0,2.0,67,0.00,,CLR,0.00,260.00,VWS V14.01,2013-06-13 23:40:00,
2013-06-13 18:45:00,81.0,67.7,29.84,WNW,294,0.0,1.0,64,0.00,,CLR,0.00,248.00,VWS V14.01,2013-06-13 23:45:00,
2013-06-13 18:50:00,81.1,68.7,29.84,WNW,294,0.0,1.0,66,0.00,,CLR,0.00,230.00,VWS V14.01,2013-06-13 23:50:00,
2013-06-13 18:55:00,80.8,68.4,29.84,WNW,294,0.0,0.0,66,0.00,,CLR,0.00,216.00,VWS V14.01,2013-06-13 23:55:00,
2013-06-13 19:00:00,80.4,68.0,29.83,WNW,294,0.0,1.0,66,0.00,,CLR,0.00,116.00,VWS V14.01,2013-06-14 00:00:00,
2013-06-13 19:05:00,80.0,68.1,29.83,WNW,294,0.0,0.0,67,0.00,,CLR,0.00,86.00,VWS V14.01,2013-06-14 00:05:00,
2013-06-13 19:10:00,79.8,68.7,29.83,West,271,0.0,1.0,69,0.00,,CLR,0.00,63.00,VWS V14.01,2013-06-14 00:10:00,
2013-06-13 19:15:00,79.6,67.2,29.84,West,271,0.0,0.0,66,0.00,,CLR,0.00,63.00,VWS V14.01,2013-06-14 00:15:00,
2013-06-13 19:20:00,79.1,68.1,29.84,West,271,0.0,1.0,69,0.00,,CLR,0.00,62.00,VWS V14.01,2013-06-14 00:20:00,
2013-06-13 19:25:00,78.9,68.3,29.84,West,271,0.0,0.0,70,0.00,,CLR,0.00,83.00,VWS V14.01,2013-06-14 00:25:00,
2013-06-13 19:30:00,78.4,68.2,29.84,West,271,0.0,0.0,71,0.00,,CLR,0.00,49.00,VWS V14.01,2013-06-14 00:30:00,
2013-06-13 19:35:00,77.8,68.1,29.84,West,271,0.0,0.0,72,0.00,,CLR,0.00,40.00,VWS V14.01,2013-06-14 00:35:00,
2013-06-13 19:40:00,77.4,67.7,29.84,West,271,0.0,0.0,72,0.00,,CLR,0.00,28.00,VWS V14.01,2013-06-14 00:40:00,
2013-06-13 19:45:00,76.9,68.0,29.84,West,271,0.0,0.0,74,0.00,,CLR,0.00,25.00,VWS V14.01,2013-06-14 00:45:00,
2013-06-13 19:50:00,76.5,68.0,29.84,West,271,0.0,0.0,75,0.00,,CLR,0.00,23.00,VWS V14.01,2013-06-14 00:50:00,
2013-06-13 19:55:00,76.4,68.3,29.84,WSW,250,0.0,0.0,76,0.00,,CLR,0.00,21.00,VWS V14.01,2013-06-14 00:55:00,
2013-06-13 20:00:00,76.1,68.0,29.85,SSW,192,0.0,0.0,76,0.00,,CLR,0.00,18.00,VWS V14.01,2013-06-14 01:00:00,
2013-06-13 20:05:00,75.7,68.0,29.85,SSW,192,0.0,0.0,77,0.00,,CLR,0.00,18.00,VWS V14.01,2013-06-14 01:05:00,
2013-06-13 20:10:00,75.5,67.8,29.85,SSW,192,0.0,0.0,77,0.00,,CLR,0.00,18.00,VWS V14.01,2013-06-14 01:10:00,
2013-06-13 20:15:00,75.3,68.0,29.85,SSW,192,0.0,0.0,78,0.00,,CLR,0.00,16.00,VWS V14.01,2013-06-14 01:15:00,
2013-06-13 20:20:00,75.1,67.8,29.85,SSW,192,0.0,0.0,78,0.00,,CLR,0.00,12.00,VWS V14.01,2013-06-14 01:20:00,
2013-06-13 20:25:00,74.9,67.6,29.85,SSW,192,0.0,0.0,78,0.00,,CLR,0.00,7.00,VWS V14.01,2013-06-14 01:25:00,
2013-06-13 20:30:00,74.6,67.3,29.85,SSW,192,0.0,0.0,78,0.00,,SCT110,0.00,5.00,VWS V14.01,2013-06-14 01:30:00,
2013-06-13 20:31:00,74.6,67.3,29.85,SSW,192,0.0,0.0,78,0.00,,CLR,0.00,0.00,VWS V14.01,2013-06-14 01:31:00,
2013-06-13 20:35:00,74.4,67.1,29.85,SSW,192,0.0,0.0,78,0.00,,SCT110,0.00,0.00,VWS V14.01,2013-06-14 01:35:00,
2013-06-13 20:36:00,74.4,67.1,29.85,SSW,192,0.0,0.0,78,0.00,,CLR,0.00,0.00,VWS V14.01,2013-06-14 01:36:00,
2013-06-13 20:40:00,74.2,66.9,29.85,SSW,192,0.0,0.0,78,0.00,,SCT110,0.00,0.00,VWS V14.01,2013-06-14 01:40:00,
2013-06-13 20:41:00,74.2,66.9,29.85,SSW,192,0.0,0.0,78,0.00,,CLR,0.00,0.00,VWS V14.01,2013-06-14 01:41:00,
2013-06-13 20:45:00,74.0,66.7,29.85,SSW,192,0.0,0.0,78,0.00,,SCT110,0.00,0.00,VWS V14.01,2013-06-14 01:45:00,
2013-06-13 20:46:00,74.0,66.7,29.85,SSW,192,0.0,0.0,78,0.00,,CLR,0.00,0.00,VWS V14.01,2013-06-14 01:46:00,
2013-06-13 20:50:00,73.8,67.2,29.85,SSW,192,0.0,0.0,80,0.00,,SCT110,0.00,0.00,VWS V14.01,2013-06-14 01:50:00,
2013-06-13 20:51:00,73.8,67.2,29.85,SSW,192,0.0,0.0,80,0.00,,CLR,0.00,0.00,VWS V14.01,2013-06-14 01:51:00,
2013-06-13 20:55:00,73.7,66.8,29.85,SSW,192,0.0,1.0,79,0.00,,SCT110,0.00,0.00,VWS V14.01,2013-06-14 01:55:00,
2013-06-13 20:56:00,73.7,66.8,29.85,SSW,192,0.0,0.0,79,0.00,,CLR,0.00,0.00,VWS V14.01,2013-06-14 01:56:00,
2013-06-13 21:00:00,73.4,66.9,29.85,SSW,192,0.0,0.0,80,0.00,,SCT110,0.00,0.00,VWS V14.01,2013-06-14 02:00:00,
2013-06-13 21:01:00,73.4,66.9,29.85,SSW,192,0.0,0.0,80,0.00,,CLR,0.00,0.00,VWS V14.01,2013-06-14 02:01:00,
2013-06-13 21:05:00,73.3,67.1,29.85,SSW,192,0.0,0.0,81,0.00,,SCT110,0.00,0.00,VWS V14.01,2013-06-14 02:05:00,
2013-06-13 21:06:00,73.3,67.1,29.85,SSW,192,0.0,0.0,81,0.00,,CLR,0.00,0.00,VWS V14.01,2013-06-14 02:06:00,
2013-06-13 21:10:00,73.3,67.1,29.85,SSW,192,0.0,0.0,81,0.00,,SCT110,0.00,0.00,VWS V14.01,2013-06-14 02:10:00,
2013-06-13 21:11:00,73.3,66.8,29.85,SSW,193,0.0,2.0,80,0.00,,CLR,0.00,0.00,VWS V14.01,2013-06-14 02:11:00,
2013-06-13 21:15:00,73.3,67.1,29.85,SSW,193,0.0,2.0,81,0.00,,SCT110,0.00,0.00,VWS V14.01,2013-06-14 02:15:00,
2013-06-13 21:16:00,73.3,67.1,29.85,SSW,193,0.0,0.0,81,0.00,,CLR,0.00,0.00,VWS V14.01,2013-06-14 02:16:00,
2013-06-13 21:20:00,73.1,66.9,29.85,SSW,193,0.0,0.0,81,0.00,,SCT110,0.00,0.00,VWS V14.01,2013-06-14 02:20:00,
2013-06-13 21:21:00,73.1,66.6,29.85,SSE,161,0.0,3.0,80,0.00,,CLR,0.00,0.00,VWS V14.01,2013-06-14 02:21:00,
2013-06-13 21:25:00,73.1,66.9,29.85,SSE,161,0.0,3.0,81,0.00,,SCT110,0.00,0.00,VWS V14.01,2013-06-14 02:25:00,
2013-06-13 21:26:00,73.1,66.9,29.85,SSE,161,0.0,0.0,81,0.00,,CLR,0.00,0.00,VWS V14.01,2013-06-14 02:26:00,
2013-06-13 21:30:00,72.8,67.0,29.86,SSE,161,0.0,0.0,82,0.00,,SCT110,0.00,0.00,VWS V14.01,2013-06-14 02:30:00,
2013-06-13 21:31:00,72.8,67.0,29.86,SSE,161,0.0,0.0,82,0.00,,CLR,0.00,0.00,VWS V14.01,2013-06-14 02:31:00,
2013-06-13 21:35:00,72.5,66.7,29.86,SSE,161,0.0,0.0,82,0.00,,SCT110,0.00,0.00,VWS V14.01,2013-06-14 02:35:00,
2013-06-13 21:36:00,72.5,66.7,29.86,SSE,161,0.0,0.0,82,0.00,,CLR,0.00,0.00,VWS V14.01,2013-06-14 02:36:00,
2013-06-13 21:40:00,72.2,67.1,29.86,SSE,161,0.0,0.0,84,0.00,,SCT110,0.00,0.00,VWS V14.01,2013-06-14 02:40:00,
2013-06-13 21:41:00,72.1,66.7,29.86,SSE,161,0.0,0.0,83,0.00,,CLR,0.00,0.00,VWS V14.01,2013-06-14 02:41:00,
2013-06-13 21:45:00,72.1,66.7,29.85,WSW,250,0.0,2.0,83,0.00,,SCT110,0.00,0.00,VWS V14.01,2013-06-14 02:45:00,
2013-06-13 21:46:00,72.1,66.7,29.85,WSW,250,0.0,0.0,83,0.00,,CLR,0.00,0.00,VWS V14.01,2013-06-14 02:46:00,
2013-06-13 21:50:00,72.0,66.2,29.85,WSW,250,0.0,0.0,82,0.00,,SCT110,0.00,0.00,VWS V14.01,2013-06-14 02:50:00,
2013-06-13 21:51:00,72.0,66.2,29.85,WSW,250,0.0,0.0,82,0.00,,CLR,0.00,0.00,VWS V14.01,2013-06-14 02:51:00,
2013-06-13 21:55:00,71.9,66.1,29.85,WSW,250,0.0,0.0,82,0.00,,SCT110,0.00,0.00,VWS V14.01,2013-06-14 02:55:00,
2013-06-13 21:56:00,71.9,66.1,29.85,WSW,250,0.0,0.0,82,0.00,,CLR,0.00,0.00,VWS V14.01,2013-06-14 02:56:00,
2013-06-13 22:00:00,71.8,66.4,29.85,WSW,250,0.0,0.0,83,0.00,,SCT110,0.00,0.00,VWS V14.01,2013-06-14 03:00:00,
2013-06-13 22:01:00,71.7,66.3,29.85,WSW,250,0.0,0.0,83,0.00,,CLR,0.00,0.00,VWS V14.01,2013-06-14 03:01:00,
2013-06-13 22:05:00,71.5,66.1,29.85,WSW,250,0.0,0.0,83,0.00,,SCT110,0.00,0.00,VWS V14.01,2013-06-14 03:05:00,
2013-06-13 22:06:00,71.5,66.1,29.85,WSW,250,0.0,0.0,83,0.00,,CLR,0.00,0.00,VWS V14.01,2013-06-14 03:06:00,
2013-06-13 22:10:00,71.2,66.1,29.85,WSW,250,0.0,1.0,84,0.00,,SCT110,0.00,0.00,VWS V14.01,2013-06-14 03:10:00,
2013-06-13 22:11:00,71.2,65.8,29.85,WSW,250,0.0,0.0,83,0.00,,CLR,0.00,0.00,VWS V14.01,2013-06-14 03:11:00,
2013-06-13 22:15:00,70.8,65.7,29.85,WSW,250,0.0,0.0,84,0.00,,SCT110,0.00,0.00,VWS V14.01,2013-06-14 03:15:00,
2013-06-13 22:16:00,70.7,65.6,29.85,WSW,250,0.0,0.0,84,0.00,,CLR,0.00,0.00,VWS V14.01,2013-06-14 03:16:00,
2013-06-13 22:20:00,70.5,65.4,29.85,WSW,250,0.0,0.0,84,0.00,,SCT110,0.00,0.00,VWS V14.01,2013-06-14 03:20:00,
2013-06-13 22:21:00,70.5,65.4,29.85,WSW,250,0.0,0.0,84,0.00,,CLR,0.00,0.00,VWS V14.01,2013-06-14 03:21:00,
2013-06-13 22:25:00,70.6,65.5,29.85,SSW,196,0.0,2.0,84,0.00,,SCT110,0.00,0.00,VWS V14.01,2013-06-14 03:25:00,
2013-06-13 22:26:00,70.6,65.5,29.85,SSW,200,0.0,1.0,84,0.00,,CLR,0.00,0.00,VWS V14.01,2013-06-14 03:26:00,
2013-06-13 22:30:00,70.4,65.3,29.84,SSW,200,0.0,1.0,84,0.00,,SCT110,0.00,0.00,VWS V14.01,2013-06-14 03:30:00,
2013-06-13 22:31:00,70.4,65.3,29.84,SSW,200,0.0,0.0,84,0.00,,CLR,0.00,0.00,VWS V14.01,2013-06-14 03:31:00,
2013-06-13 22:35:00,70.7,66.0,29.84,SSW,200,0.0,1.0,85,0.00,,SCT110,0.00,0.00,VWS V14.01,2013-06-14 03:35:00,
2013-06-13 22:36:00,70.7,66.0,29.84,SSW,200,0.0,0.0,85,0.00,,CLR,0.00,0.00,VWS V14.01,2013-06-14 03:36:00,
2013-06-13 22:40:00,70.6,65.5,29.84,SSW,200,0.0,0.0,84,0.00,,SCT110,0.00,0.00,VWS V14.01,2013-06-14 03:40:00,
2013-06-13 22:41:00,70.6,65.9,29.84,SSW,200,0.0,0.0,85,0.00,,CLR,0.00,0.00,VWS V14.01,2013-06-14 03:41:00,
2013-06-13 22:45:00,70.6,65.9,29.84,SSW,200,0.0,1.0,85,0.00,,SCT110,0.00,0.00,VWS V14.01,2013-06-14 03:45:00,
2013-06-13 22:46:00,70.6,65.9,29.84,SSW,200,0.0,0.0,85,0.00,,CLR,0.00,0.00,VWS V14.01,2013-06-14 03:46:00,
2013-06-13 22:50:00,70.4,65.7,29.84,SSW,200,0.0,0.0,85,0.00,,SCT110,0.00,0.00,VWS V14.01,2013-06-14 03:50:00,
2013-06-13 22:51:00,70.2,65.5,29.84,SSW,200,0.0,0.0,85,0.00,,CLR,0.00,0.00,VWS V14.01,2013-06-14 03:51:00,
2013-06-13 22:55:00,70.0,65.6,29.84,SSW,200,0.0,0.0,86,0.00,,SCT110,0.00,0.00,VWS V14.01,2013-06-14 03:55:00,
2013-06-13 22:56:00,69.9,65.5,29.84,SSW,200,0.0,0.0,86,0.00,,CLR,0.00,0.00,VWS V14.01,2013-06-14 03:56:00,
2013-06-13 23:00:00,69.9,65.9,29.85,SSW,200,0.0,0.0,87,0.00,,SCT110,0.00,0.00,VWS V14.01,2013-06-14 04:00:00,
2013-06-13 23:01:00,69.9,65.5,29.85,SSW,200,0.0,0.0,86,0.00,,CLR,0.00,0.00,VWS V14.01,2013-06-14 04:01:00,
2013-06-13 23:02:00,69.8,65.8,29.85,SSW,200,0.0,0.0,87,0.00,,CLR,0.00,0.00,VWS V14.01,2013-06-14 04:02:00,
2013-06-13 23:05:00,69.8,65.8,29.85,SSW,200,0.0,0.0,87,0.00,,CLR,0.00,0.00,VWS V14.01,2013-06-14 04:05:00,
2013-06-13 23:10:00,69.6,65.6,29.85,SSW,200,0.0,0.0,87,0.00,,CLR,0.00,0.00,VWS V14.01,2013-06-14 04:10:00,
2013-06-13 23:12:00,69.5,65.5,29.85,SSW,200,0.0,1.0,87,0.00,,CLR,0.00,0.00,VWS V14.01,2013-06-14 04:12:00,
2013-06-13 23:15:00,69.3,65.6,29.84,SSW,200,0.0,1.0,88,0.00,,CLR,0.00,0.00,VWS V14.01,2013-06-14 04:15:00,
2013-06-13 23:20:00,68.7,65.3,29.84,SSW,200,0.0,1.0,89,0.00,,CLR,0.00,0.00,VWS V14.01,2013-06-14 04:20:00,
2013-06-13 23:25:00,68.7,65.3,29.84,SSW,200,0.0,0.0,89,0.00,,SCT110,0.00,0.00,VWS V14.01,2013-06-14 04:25:00,
2013-06-13 23:26:00,68.7,65.3,29.84,SSW,200,0.0,0.0,89,0.00,,CLR,0.00,0.00,VWS V14.01,2013-06-14 04:26:00,
2013-06-13 23:30:00,68.7,65.3,29.84,SSW,200,0.0,0.0,89,0.00,,SCT110,0.00,0.00,VWS V14.01,2013-06-14 04:30:00,
2013-06-13 23:31:00,68.7,65.3,29.84,SSW,200,0.0,0.0,89,0.00,,CLR,0.00,0.00,VWS V14.01,2013-06-14 04:31:00,
2013-06-13 23:35:00,69.0,65.3,29.84,SSW,200,0.0,2.0,88,0.00,,SCT110,0.00,0.00,VWS V14.01,2013-06-14 04:35:00,
2013-06-13 23:36:00,69.0,65.3,29.84,SSW,200,0.0,0.0,88,0.00,,CLR,0.00,0.00,VWS V14.01,2013-06-14 04:36:00,
2013-06-13 23:40:00,69.0,65.3,29.84,SSW,200,0.0,0.0,88,0.00,,SCT110,0.00,0.00,VWS V14.01,2013-06-14 04:40:00,
2013-06-13 23:41:00,68.9,65.2,29.84,SSW,200,0.0,0.0,88,0.00,,CLR,0.00,0.00,VWS V14.01,2013-06-14 04:41:00,
2013-06-13 23:45:00,68.6,65.2,29.84,SSW,200,0.0,0.0,89,0.00,,SCT110,0.00,0.00,VWS V14.01,2013-06-14 04:45:00,
2013-06-13 23:46:00,68.6,65.2,29.84,SSW,200,0.0,0.0,89,0.00,,CLR,0.00,0.00,VWS V14.01,2013-06-14 04:46:00,
2013-06-13 23:50:00,68.9,65.2,29.84,SSW,200,0.0,0.0,88,0.00,,SCT110,0.00,0.00,VWS V14.01,2013-06-14 04:50:00,
2013-06-13 23:51:00,68.9,65.2,29.84,SSW,200,0.0,0.0,88,0.00,,CLR,0.00,0.00,VWS V14.01,2013-06-14 04:51:00,
2013-06-13 23:55:00,68.9,65.2,29.84,SSW,200,0.0,0.0,88,0.00,,SCT110,0.00,0.00,VWS V14.01,2013-06-14 04:55:00,
2013-06-13 23:56:00,68.8,65.1,29.84,SSW,200,0.0,0.0,88,0.00,,CLR,0.00,0.00,VWS V14.01,2013-06-14 04:56:00,